SAS91K EKCH-ENGM

Flight info

Callsign SAS91K
Flight time N/A
Altitude 36000
Route VEDAR DCT SABAK DCT LUNIP
Aircraft A320/M-SDE3FGHIJ1RWXYZ/ALB1

Departure

Time 2026-04-24 17:02
Airport Copenhagen Kastrup Airport (EKCH)

Arrival

Time N/A
Airport Oslo-Gardermoen International Airport (ENGM)
Time Latitude Longitude Altitude Speed Heading
2026-04-24 16:29 55.62754 12.64482 24 ft 0 kts 101°
2026-04-24 16:53 55.62756 12.64468 25 ft 4 kts 103°
2026-04-24 16:53 55.62764 12.64423 26 ft 4 kts 107°
2026-04-24 16:53 55.62762 12.64388 25 ft 3 kts 43°
2026-04-24 16:53 55.62756 12.64382 27 ft 4 kts 18°
2026-04-24 16:54 55.62737 12.64368 27 ft 4 kts 32°
2026-04-24 16:54 55.62718 12.64350 26 ft 4 kts 28°
2026-04-24 16:54 55.62700 12.64334 28 ft 4 kts 20°
2026-04-24 16:54 55.62680 12.64322 24 ft 4 kts 21°
2026-04-24 16:55 55.62661 12.64308 25 ft 4 kts 20°
2026-04-24 16:55 55.62641 12.64294 28 ft 2 kts 25°
2026-04-24 16:55 55.62624 12.64277 27 ft 4 kts 30°
2026-04-24 16:55 55.62608 12.64256 24 ft 4 kts 50°
2026-04-24 16:56 55.62601 12.64228 27 ft 4 kts 87°
2026-04-24 16:56 55.62605 12.64190 26 ft 2 kts 108°
2026-04-24 16:56 55.62618 12.64156 27 ft 3 kts 126°
2026-04-24 16:56 55.62621 12.64150 26 ft 0 kts 123°
2026-04-24 16:58 55.62614 12.64167 25 ft 4 kts 123°
2026-04-24 16:58 55.62579 12.64208 41 ft 8 kts 178°
2026-04-24 16:58 55.62520 12.64221 24 ft 10 kts 143°
2026-04-24 16:59 55.62476 12.64331 24 ft 12 kts 126°
2026-04-24 16:59 55.62414 12.64447 24 ft 14 kts 153°
2026-04-24 16:59 55.62202 12.64347 23 ft 19 kts 212°
2026-04-24 17:00 55.62082 12.64247 24 ft 20 kts 205°
2026-04-24 17:00 55.61820 12.64076 24 ft 20 kts 172°
2026-04-24 17:00 55.61686 12.64090 27 ft 13 kts 174°
2026-04-24 17:01 55.61603 12.64037 27 ft 4 kts 220°
2026-04-24 17:01 55.61570 12.63986 28 ft 11 kts 221°
2026-04-24 17:02 55.60750 12.62723 26 ft 138 kts 221°
2026-04-24 17:02 55.59987 12.61445 356 ft 153 kts 227°
2026-04-24 17:02 55.59177 12.60162 889 ft 160 kts 226°
2026-04-24 17:02 55.58295 12.58841 1286 ft 176 kts 226°
2026-04-24 17:03 55.56284 12.55494 1881 ft 217 kts 247°
2026-04-24 17:03 55.56007 12.52900 2270 ft 226 kts 283°
2026-04-24 17:03 55.56283 12.50077 2953 ft 239 kts 284°
2026-04-24 17:04 55.56559 12.47158 3934 ft 243 kts 284°
2026-04-24 17:04 55.57101 12.41131 5775 ft 252 kts 282°
2026-04-24 17:04 55.57370 12.38051 6708 ft 256 kts 282°
2026-04-24 17:05 55.57788 12.35003 7554 ft 255 kts 297°
2026-04-24 17:05 55.58823 12.32443 8449 ft 254 kts 319°
2026-04-24 17:05 55.62098 12.30319 10159 ft 263 kts 351°
2026-04-24 17:06 55.64013 12.29964 10501 ft 285 kts 351°
2026-04-24 17:06 55.68131 12.29213 11543 ft 307 kts 351°
2026-04-24 17:06 55.70265 12.28828 12305 ft 310 kts 350°
2026-04-24 17:07 55.71718 12.28563 12825 ft 312 kts 349°
2026-04-24 17:07 55.74606 12.28026 13805 ft 317 kts 349°
2026-04-24 17:07 55.79038 12.27222 15120 ft 324 kts 350°
2026-04-24 17:08 55.83594 12.26729 16383 ft 332 kts 352°
2026-04-24 17:08 55.85909 12.26530 17023 ft 335 kts 352°
2026-04-24 17:08 55.88249 12.26327 17667 ft 338 kts 352°
2026-04-24 17:09 55.92999 12.25883 18873 ft 345 kts 352°
2026-04-24 17:09 55.97822 12.25409 20136 ft 349 kts 351°
2026-04-24 17:10 56.00256 12.25169 20772 ft 351 kts 351°
2026-04-24 17:10 56.07629 12.24412 22535 ft 358 kts 351°
2026-04-24 17:11 56.15076 12.22891 24140 ft 362 kts 346°
2026-04-24 17:12 56.27717 12.19385 26449 ft 372 kts 345°